EW3791 Weather Reports


Display with metric or nautical units.
time (UTC)temp
F
wind
direction
speed
MPH
gust
MPH
rain 1hr
in
rain 24hr
in
rain mn
in
humidity
%
barometer
mb
20260506091528 76 148 6.0 10.0 0.00 0.00 0.00 93 1007.6
20260506090112 76 139 2.0 6.0 0.00 0.00 0.00 92 1007.7
20260506084541 76 186 3.0 7.0 0.00 0.00 0.00 92 1007.8
20260506083008 77 174 3.0 11.0 0.00 0.00 0.00 92 1008.0
20260506081546 77 143 5.0 13.0 0.00 0.00 0.00 91 1008.0
20260506073040 77 110 5.0 10.0 0.00 0.00 0.00 91 1008.3
20260506071514 77 184 4.0 13.0 0.00 0.00 0.00 91 1008.4
20260506061534 77 158 3.0 9.0 0.00 0.00 0.00 90 1008.7
20260506044506 77 149 3.0 9.0 0.00 0.00 0.00 91 1008.8
20260506043044 77 149 4.0 10.0 0.00 0.00 0.00 91 1008.5
20260506041517 77 145 2.0 9.0 0.00 0.00 0.00 91 1008.7
20260506040056 77 171 3.0 8.0 0.00 0.00 0.00 91 1008.6
20260506034517 77 162 1.0 7.0 0.00 0.00 0.00 90 1008.4
20260506033101 77 170 4.0 10.0 0.00 0.00 0.00 89 1008.2
20260506031535 78 160 8.0 15.0 0.00 0.00 0.00 89 1008.2
20260506030118 78 181 6.0 15.0 0.00 0.00 0.00 89 1008.0
20260506024556 78 200 6.0 15.0 0.00 0.00 0.00 88 1007.9
20260506023019 78 152 8.0 15.0 0.00 0.00 0.00 88 1007.6
20260506021604 78 242 4.0 13.0 0.00 0.00 0.00 87 1007.4
20260506020035 78 171 6.0 13.0 0.00 0.00 0.00 87 1007.3
20260506014504 79 130 6.0 12.0 0.00 0.00 0.00 86 1006.9
20260506013043 79 131 3.0 8.0 0.00 0.00 0.00 86 1006.8
20260506011516 79 164 8.0 17.0 0.00 0.00 0.00 85 1006.5
20260506010056 79 162 4.0 12.0 0.00 0.00 0.00 85 1006.5
20260506004529 80 138 6.0 15.0 0.00 0.00 0.00 83 1006.4
20260506003105 80 158 8.0 18.0 0.00 0.00 0.00 83 1006.2
20260506001539 80 193 7.0 17.0 0.00 0.00 0.00 82 1006.2
20260506000003 81 205 6.0 12.0 0.00 0.00 0.00 81 1006.1
20260505234547 81 151 6.0 15.0 0.00 0.00 0.00 80 1006.1
20260505233011 81 195 7.0 16.0 0.00 0.00 0.00 81 1006.1
20260505231603 81 185 8.0 18.0 0.00 0.00 0.00 81 1006.2
20260505230047 81 221 7.0 14.0 0.00 0.00 0.00 80 1006.2
20260505224610 81 194 7.0 15.0 0.00 0.00 0.00 80 1006.1
20260505223045 81 163 10.0 17.0 0.00 0.00 0.00 81 1006.1
20260505221519 82 191 7.0 14.0 0.00 0.00 0.00 80 1006.3
20260505220058 82 181 6.0 14.0 0.00 0.00 0.00 80 1006.3
20260505214538 82 181 7.0 13.0 0.00 0.00 0.00 80 1006.6
20260505213011 82 119 9.0 15.0 0.00 0.00 0.00 79 1006.7
20260505211554 82 200 8.0 15.0 0.00 0.00 0.00 80 1006.7
20260505210021 82 126 9.0 15.0 0.00 0.00 0.00 79 1006.9
20260505204602 82 182 10.0 17.0 0.00 0.00 0.00 79 1007.0
20260505203034 82 222 6.0 11.0 0.00 0.00 0.00 80 1007.2
20260505201511 82 212 6.0 13.0 0.00 0.00 0.00 81 1007.6
20260505200049 82 198 8.0 14.0 0.00 0.00 0.00 80 1007.6
20260505194517 82 180 8.0 14.0 0.00 0.00 0.00 79 1007.8
20260505193057 82 215 7.0 17.0 0.00 0.00 0.00 80 1007.9
20260505191533 82 189 5.0 12.0 0.00 0.00 0.00 81 1008.1
20260505190112 81 139 6.0 14.0 0.00 0.00 0.00 82 1008.2
20260505184538 80 196 6.0 15.0 0.00 0.00 0.00 82 1008.3
20260505183005 80 153 5.0 9.0 0.00 0.00 0.00 82 1008.3
20260505181539 80 215 4.0 13.0 0.00 0.00 0.00 83 1008.5
20260505180013 80 216 7.0 14.0 0.00 0.00 0.00 83 1008.7
20260505174551 79 177 6.0 12.0 0.00 0.00 0.00 84 1008.7
20260505173006 79 192 4.0 11.0 0.00 0.00 0.00 84 1008.9
20260505171551 79 142 5.0 13.0 0.00 0.00 0.00 84 1008.9
20260505170024 79 181 6.0 13.0 0.00 0.00 0.00 84 1009.0
20260505164558 79 215 6.0 16.0 0.00 0.00 0.00 84 1009.0
20260505163032 78 234 5.0 13.0 0.00 0.00 0.00 85 1009.0
20260505161505 78 174 6.0 14.0 0.00 0.00 0.00 85 1008.9
20260505153105 78 165 6.0 15.0 0.00 0.00 0.00 85 1008.7
20260505151536 77 124 3.0 12.0 0.00 0.00 0.00 86 1008.6
20260505124528 74 169 4.0 10.0 0.00 0.00 0.00 90 1008.3
20260505123109 73 217 3.0 9.0 0.00 0.00 0.00 90 1008.3
20260505121540 73 150 5.0 12.0 0.00 0.00 0.00 90 1007.9
20260505120015 73 126 6.0 12.0 0.00 0.00 0.00 90 1007.8
20260505114545 73 181 3.0 9.0 0.00 0.00 0.00 90 1008.3
20260505113015 73 196 4.0 10.0 0.00 0.00 0.00 90 1007.9
20260505111552 73 181 4.0 10.0 0.00 0.00 0.00 89 1007.9
20260505101611 73 158 5.0 10.0 0.00 0.00 0.00 89 1008.0
20260505100056 73 182 4.0 11.0 0.00 0.00 0.00 89 1008.1
20260505094508 72 155 4.0 11.0 0.00 0.00 0.00 89 1007.9
20260505093101 72 171 4.0 12.0 0.00 0.00 0.00 89 1008.1